Dewpoint
69 70 70 70 70 71 71 71 72 71 72 72 73 73 73 73 74 75 75 74 74 75 74 74 74 75 70 69 68 67 66 65 62 61 64 66 69 69 67 68 68 68 66
69 70 70 71 71 70 71 71 73 73 72 72 73 73 73 73 73 74 73 72 73 74 74 74 73 72 74 74 70 72 69 69 65 69 67 64 69 70 70 70 67 63 65
68 68 69 70 70 71 72 72 72 72 73 71 72 73 73 73 73 73 73 73 73 73 74 74 74 74 74 72 73 71 70 70 69 66 65 65 66 65 67 70 69 70 66
66 67 69 70 70 70 72 73 72 73 73 72 72 73 73 72 73 73 73 73 74 73 74 74 74 74 74 75 73 74 73 72 71 70 68 67 67 70 67 65 64 64 64
68 68 69 71 71 72 72 73 73 73 73 73 73 72 72 71 69 72 73 73 74 73 74 74 74 74 71 72 72 75 75 72 70 68 67 66 66 66 67 66 65 65 68
69 69 70 72 72 72 73 73 74 73 73 74 73 72 72 69 65 66 71 72 74 74 73 74 75 72 72 68 67 68 72 75 73 70 68 68 73 71 70 69 68 67 66
70 70 71 72 72 73 73 74 74 74 73 74 73 72 73 74 64 64 67 71 72 73 74 74 72 70 72 74 69 66 67 66 68 74 74 74 74 75 75 73 73 71 70
70 71 72 72 72 73 73 73 74 73 74 73 73 74 74 73 64 63 65 72 73 74 75 74 75 75 74 73 74 73 74 74 74 71 73 74 75 76 76 75 76 74 72
70 71 71 72 72 73 73 73 73 72 73 73 73 74 74 74 63 62 65 72 72 74 74 75 75 75 70 65 74 74 75 74 68 65 66 66 64 63 66 71 70 70 68
70 71 72 72 73 73 74 74 74 73 73 71 71 74 71 74 64 61 64 70 71 70 74 75 66 71 64 62 73 73 74 73 73 74 75 70 66 70 64 67 70 69 70
69 70 72 73 73 74 75 75 74 73 73 73 73 74 74 73 74 60 59 71 70 70 69 69 70 62 61 60 61 74 74 73 73 75 74 74 75 75 75 74 71 70 70
72 72 73 74 71 71 75 74 74 75 74 74 74 73 73 74 66 62 58 60 68 72 72 71 73 62 58 58 60 62 61 63 72 72 72 73 73 73 74 74 76 75 73
73 74 73 74 73 75 74 74 72 74 71 72 71 71 71 72 74 61 58 57 59 69 72 69 63 59 57 59 58 58 58 67 69 70 70 71 72 72 75 75 74 76 76
72 73 73 73 73 74 72 72 71 71 71 71 71 71 71 72 73 74 72 68 60 63 65 69 68 66 64 68 70 64 66 67 68 69 70 71 72 71 68 67 65 65 65
71 70 71 71 72 72 73 71 71 73 69 71 71 71 71 71 72 68 70 73 73 69 70 73 73 73 73 74 74 73 73 71 70 71 71 70 66 65 65 65 64 64 64
70 71 70 69 70 70 71 67 48 49 49 50 53 64 72 60 56 54 52 54 54 54 71 73 73 72 72 72 71 71 69 66 68 66 65 64 63 64 64 64 64 64 65
68 69 68 72 74 72 71 68 68 57 46 44 44 51 52 59 53 50 48 48 49 55 72 72 72 71 70 67 66 66 65 65 67 64 64 64 64 64 62 63 64 64 62
67 59 68 68 69 72 71 70 70 69 68 66 50 49 44 44 44 44 46 54 66 65 70 70 67 65 64 64 64 64 64 64 64 64 64 64 64 63 63 63 62 62 61
66 65 68 70 70 69 71 70 69 69 69 62 59 53 47 44 45 47 51 69 69 65 63 64 64 64 64 64 64 65 65 64 63 63 63 64 63 64 63 63 61 57 58
64 62 62 68 68 69 68 67 67 67 66 65 64 62 60 60 63 62 62 63 63 63 64 64 64 65 65 66 65 66 65 64 64 64 64 64 65 65 63 62 62 62 62
61 64 61 65 67 67 65 64 64 65 65 64 64 61 52 63 62 60 59 59 61 61 63 63 63 61 60 61 62 65 64 64 63 64 65 65 65 64 65 64 63 62 62
59 62 63 64 66 65 64 62 62 61 60 58 57 54 48 58 57 55 54 54 54 56 56 57 55 53 53 53 53 54 56 58 59 60 62 64 64 63 63 62 62 62 61
59 61 62 63 64 60 62 61 60 59 57 56 55 55 54 53 53 52 51 51 51 50 51 50 50 49 49 49 49 49 49 50 51 51 55 61 64 62 61 60 59 60 59
60 62 62 62 61 61 61 60 58 53 54 53 52 51 51 51 50 50 49 49 49 49 48 48 48 48 48 48 48 47 47 44 43 47 52 55 60 60 61 60 58 57 58
59 60 60 59 58 57 55 54 53 52 51 50 49 49 48 48 48 47 47 47 47 47 47 47 47 47 47 46 45 45 39 34 41 39 47 52 56 61 61 61 59 57 57
56 55 54 54 53 52 51 50 49 48 47 47 47 47 47 47 47 47 47 46 45 43 41 38 37 38 37 35 36 34 32 32 40 35 48 52 52 54 57 59 60 59 58
Lifted_Index
-2 -2 -2 -2 -2 -2 -2 -2 -2 -2 -2 -2 -3 -3 -4 -5 -5 -5 -5 -5 -6 -6 -6 -6 -6 -6 -5 -5 -4 -3 -3 -2 -2 -2 -2 -2 -3 -3 -3 -3 -2 -2 -2
-2 -2 -2 -2 -2 -2 -2 -2 -2 -2 -2 -2 -3 -3 -4 -4 -5 -5 -5 -5 -6 -6 -6 -6 -6 -6 -5 -5 -4 -4 -3 -3 -2 -2 -2 -2 -3 -3 -3 -3 -3 -2 -2
-2 -2 -2 -2 -2 -2 -2 -2 -2 -2 -2 -2 -3 -3 -4 -4 -5 -5 -5 -6 -6 -6 -6 -6 -6 -6 -6 -5 -5 -5 -5 -4 -4 -3 -3 -3 -4 -4 -3 -3 -3 -3 -3
-2 -2 -2 -2 -2 -2 -2 -2 -2 -2 -2 -3 -3 -3 -4 -4 -4 -5 -5 -6 -6 -6 -6 -6 -6 -6 -6 -6 -6 -6 -6 -5 -5 -5 -5 -5 -5 -4 -4 -4 -3 -3 -3
-3 -3 -3 -3 -3 -3 -3 -3 -3 -2 -3 -3 -3 -3 -4 -4 -4 -4 -5 -6 -6 -6 -6 -6 -6 -6 -5 -5 -6 -6 -6 -6 -6 -6 -6 -6 -6 -6 -5 -5 -4 -4 -4
-3 -3 -3 -3 -3 -3 -3 -3 -3 -3 -3 -3 -3 -3 -3 -3 -3 -3 -4 -5 -5 -5 -5 -6 -5 -5 -5 -5 -5 -6 -6 -6 -6 -6 -6 -7 -7 -7 -6 -6 -6 -5 -5
-3 -4 -4 -4 -4 -4 -4 -4 -4 -3 -3 -3 -3 -3 -4 -4 -3 -2 -3 -4 -5 -5 -6 -6 -6 -5 -6 -6 -6 -6 -6 -6 -6 -6 -6 -7 -8 -8 -7 -7 -7 -6 -6
-4 -4 -4 -4 -4 -4 -4 -4 -4 -4 -4 -4 -4 -4 -4 -4 -3 -2 -3 -4 -5 -5 -6 -6 -6 -7 -7 -7 -7 -7 -7 -7 -6 -6 -6 -7 -8 -8 -8 -8 -7 -7 -6
-4 -4 -4 -4 -4 -4 -4 -4 -4 -4 -4 -4 -4 -4 -4 -4 -3 -3 -3 -4 -5 -6 -6 -7 -7 -7 -7 -6 -6 -7 -7 -8 -7 -6 -6 -7 -8 -8 -8 -8 -7 -7 -6
-5 -5 -5 -5 -5 -5 -5 -5 -5 -5 -4 -4 -4 -4 -5 -5 -4 -4 -3 -4 -5 -6 -7 -7 -7 -7 -6 -6 -6 -7 -7 -8 -8 -7 -8 -8 -8 -8 -8 -8 -7 -7 -6
-6 -5 -5 -5 -5 -5 -6 -6 -6 -6 -6 -5 -5 -5 -6 -5 -5 -5 -4 -5 -5 -6 -7 -7 -7 -7 -7 -7 -7 -7 -8 -8 -8 -8 -8 -8 -8 -8 -8 -8 -7 -7 -6
-7 -6 -6 -6 -6 -6 -6 -7 -7 -7 -7 -7 -7 -7 -7 -7 -6 -6 -5 -5 -6 -6 -7 -7 -8 -7 -8 -8 -8 -8 -8 -9 -9 -8 -8 -7 -7 -7 -7 -7 -7 -6 -6
-7 -7 -7 -7 -7 -7 -7 -7 -7 -7 -7 -7 -7 -7 -8 -8 -8 -7 -7 -6 -7 -7 -7 -8 -8 -8 -8 -8 -9 -9 -9 -9 -8 -8 -7 -7 -7 -6 -6 -5 -5 -4 -4
-7 -7 -7 -7 -7 -8 -8 -8 -8 -8 -8 -8 -8 -8 -8 -8 -8 -8 -8 -7 -7 -7 -8 -8 -8 -8 -8 -8 -9 -9 -9 -8 -8 -7 -6 -6 -5 -4 -3 -2 -2 -1 -1
-7 -7 -7 -7 -7 -8 -8 -8 -8 -8 -8 -8 -8 -8 -8 -9 -9 -8 -8 -8 -8 -8 -8 -8 -9 -9 -9 -8 -8 -8 -8 -7 -6 -5 -4 -3 -2 -1 -0 0 1 1 1
-7 -7 -7 -7 -7 -7 -8 -8 -8 -8 -8 -8 -8 -8 -8 -8 -8 -8 -8 -8 -8 -9 -9 -9 -9 -9 -9 -8 -8 -7 -6 -5 -4 -3 -2 0 1 2 2 2 2 2 2
-5 -5 -6 -6 -7 -8 -8 -7 -7 -7 -7 -8 -8 -8 -8 -8 -8 -8 -8 -8 -9 -9 -9 -9 -9 -9 -8 -7 -7 -6 -5 -3 -2 -0 1 2 2 2 2 2 2 2 3
-4 -4 -5 -6 -7 -8 -8 -7 -7 -7 -7 -7 -7 -7 -8 -8 -8 -8 -8 -9 -9 -8 -8 -8 -8 -7 -7 -6 -5 -4 -2 -1 1 2 3 2 2 2 2 2 3 3 3
-3 -4 -4 -5 -6 -7 -7 -7 -7 -7 -7 -7 -7 -7 -8 -8 -8 -8 -8 -8 -7 -7 -7 -7 -6 -5 -5 -4 -3 -1 0 2 3 3 3 2 2 2 2 2 3 3 4
-3 -3 -4 -5 -5 -6 -7 -8 -8 -7 -7 -7 -7 -7 -7 -7 -7 -6 -6 -6 -6 -5 -5 -4 -4 -3 -2 -1 0 1 2 3 3 3 2 2 2 2 2 3 3 3 4
-2 -3 -3 -4 -5 -5 -6 -7 -7 -7 -6 -6 -6 -5 -5 -5 -4 -4 -4 -4 -4 -3 -2 -2 -1 -0 1 2 3 3 3 3 3 3 3 2 2 2 3 3 3 4 4
-1 -2 -3 -3 -4 -4 -5 -5 -6 -6 -5 -5 -4 -4 -4 -4 -3 -3 -3 -3 -2 -1 0 1 2 3 3 4 4 4 4 4 4 4 3 3 2 3 3 3 4 4 5
-0 -1 -2 -3 -3 -3 -3 -3 -4 -5 -5 -4 -4 -4 -3 -3 -2 -2 -1 -0 1 2 3 3 4 4 4 4 4 4 4 4 4 4 3 3 3 3 3 4 4 4 5
1 -1 -2 -2 -3 -3 -3 -3 -3 -4 -4 -4 -3 -3 -2 -1 -0 1 2 2 3 4 4 4 4 5 5 5 5 5 5 5 4 4 3 3 3 3 3 3 4 4 5
1 -0 -2 -2 -2 -3 -3 -3 -3 -3 -3 -3 -2 -1 -1 1 2 3 3 4 4 5 5 5 6 6 6 7 7 6 6 6 5 4 4 4 4 3 3 3 4 4 5
1 -0 -1 -2 -2 -2 -3 -3 -3 -3 -2 -2 -1 -0 0 1 3 4 4 4 5 5 6 6 7 7 7 8 8 8 7 7 6 5 5 4 4 4 4 4 4 4 4